owner,sensor,date,latitude,longitude,vertical_datum,direction_of_sea_water_velocity,sea_water_speed,upward_sea_water_velocity,qcFlag 
TABS,ioos:station:wmo:42048:1,2002-07-01T00:00:00Z,27.9396,-96.8429,2.0,163.8705297,3.851610053,-99999.0,'11133222,11111222,99999999' 
TABS,ioos:station:wmo:42048:1,2002-07-01T00:30:00Z,27.9396,-96.8429,2.0,163.7321141,6.104400052,-99999.0,'11133222,11111222,99999999' 
TABS,ioos:station:wmo:42048:1,2002-07-01T01:00:00Z,27.9396,-96.8429,2.0,197.2825148,9.593127749,-99999.0,'11133222,11111222,99999999' 
TABS,ioos:station:wmo:42048:1,2002-07-01T01:30:00Z,27.9396,-96.8429,2.0,172.274665,5.802663182,-99999.0,'11133222,11111222,99999999' 
TABS,ioos:station:wmo:42048:1,2002-07-01T02:00:00Z,27.9396,-96.8429,2.0,162.9867387,7.519049142,-99999.0,'11133222,11111222,99999999' 
TABS,ioos:station:wmo:42048:1,2002-07-01T02:30:00Z,27.9396,-96.8429,2.0,181.8493829,9.294842656,-99999.0,'11133222,11111222,99999999' 
TABS,ioos:station:wmo:42048:1,2002-07-01T03:00:00Z,27.9396,-96.8429,2.0,185.6480237,9.144397192,-99999.0,'11133222,11111222,99999999' 
TABS,ioos:station:wmo:42048:1,2002-07-01T03:30:00Z,27.9396,-96.8429,2.0,187.1092219,9.13019715,-99999.0,'11133222,11111222,99999999' 
TABS,ioos:station:wmo:42048:1,2002-07-01T04:00:00Z,27.9396,-96.8429,2.0,206.1840822,6.730713187,-99999.0,'11133222,11111222,99999999' 
TABS,ioos:station:wmo:42048:1,2002-07-01T04:30:00Z,27.9396,-96.8429,2.0,198.5821108,7.374455912,-99999.0,'11133222,11111222,99999999' 
TABS,ioos:station:wmo:42048:1,2002-07-01T05:00:00Z,27.9396,-96.8429,2.0,187.171985,7.528910944,-99999.0,'11133222,11111222,99999999' 
TABS,ioos:station:wmo:42048:1,2002-07-01T05:30:00Z,27.9396,-96.8429,2.0,200.0665496,8.77255379,-99999.0,'11133222,11111222,99999999' 
TABS,ioos:station:wmo:42048:1,2002-07-01T06:00:00Z,27.9396,-96.8429,2.0,213.594206,6.650864605,-99999.0,'11133222,11111222,99999999' 
TABS,ioos:station:wmo:42048:1,2002-07-01T06:30:00Z,27.9396,-96.8429,2.0,215.1523281,8.475806746,-99999.0,'11133222,11111222,99999999' 
TABS,ioos:station:wmo:42048:1,2002-07-01T07:00:00Z,27.9396,-96.8429,2.0,229.925625,6.011397508,-99999.0,'11133222,11111222,99999999' 
TABS,ioos:station:wmo:42048:1,2002-07-01T07:30:00Z,27.9396,-96.8429,2.0,229.2486127,9.543888097,-99999.0,'11133222,11111222,99999999' 
TABS,ioos:station:wmo:42048:1,2002-07-01T08:00:00Z,27.9396,-96.8429,2.0,240.8863642,6.638742351,-99999.0,'11133222,11111222,99999999' 
TABS,ioos:station:wmo:42048:1,2002-07-01T08:30:00Z,27.9396,-96.8429,2.0,257.2055066,7.496112326,-99999.0,'11133222,11111222,99999999' 
TABS,ioos:station:wmo:42048:1,2002-07-01T09:00:00Z,27.9396,-96.8429,2.0,250.2480042,8.670092272,-99999.0,'11133222,11111222,99999999' 
TABS,ioos:station:wmo:42048:1,2002-07-01T09:30:00Z,27.9396,-96.8429,2.0,280.6148648,6.786118183,-99999.0,'11133222,11111222,99999999' 
TABS,ioos:station:wmo:42048:1,2002-07-01T10:00:00Z,27.9396,-96.8429,2.0,294.040556,5.989532536,-99999.0,'11133222,11111222,99999999' 
TABS,ioos:station:wmo:42048:1,2002-07-01T10:30:00Z,27.9396,-96.8429,2.0,291.1616313,4.986231042,-99999.0,'11133222,11111222,99999999' 
TABS,ioos:station:wmo:42048:1,2002-07-01T11:00:00Z,27.9396,-96.8429,2.0,258.4957434,5.214757904,-99999.0,'11133222,11111222,99999999' 
TABS,ioos:station:wmo:42048:1,2002-07-01T11:30:00Z,27.9396,-96.8429,2.0,281.3626199,6.446340047,-99999.0,'11133222,11111222,99999999' 
TABS,ioos:station:wmo:42048:1,2002-07-01T12:00:00Z,27.9396,-96.8429,2.0,307.1107163,3.812033578,-99999.0,'11133222,11111222,99999999' 
TABS,ioos:station:wmo:42048:1,2002-07-01T12:30:00Z,27.9396,-96.8429,2.0,276.5429657,5.002579335,-99999.0,'11133222,11111222,99999999' 
TABS,ioos:station:wmo:42048:1,2002-07-01T13:00:00Z,27.9396,-96.8429,2.0,316.1091252,2.192441561,-99999.0,'11133222,11111222,99999999' 
TABS,ioos:station:wmo:42048:1,2002-07-01T14:00:00Z,27.9396,-96.8429,2.0,253.7394124,1.5,-99999.0,'11133222,11111222,99999999' 
TABS,ioos:station:wmo:42048:1,2002-07-01T15:00:00Z,27.9396,-96.8429,2.0,174.7689946,1.425938288,-99999.0,'11133222,11111222,99999999' 
TABS,ioos:station:wmo:42048:1,2002-07-01T15:30:00Z,27.9396,-96.8429,2.0,188.6023612,3.944375743,-99999.0,'11133222,11111222,99999999' 
TABS,ioos:station:wmo:42048:1,2002-07-01T16:00:00Z,27.9396,-96.8429,2.0,185.1041543,4.608275165,-99999.0,'11133222,11111222,99999999' 
TABS,ioos:station:wmo:42048:1,2002-07-01T16:30:00Z,27.9396,-96.8429,2.0,163.5143351,5.391641679,-99999.0,'11133222,11111222,99999999' 
TABS,ioos:station:wmo:42048:1,2002-07-01T17:00:00Z,27.9396,-96.8429,2.0,189.9457712,4.284390272,-99999.0,'11133222,11111222,99999999' 
TABS,ioos:station:wmo:42048:1,2002-07-01T18:00:00Z,27.9396,-96.8429,2.0,210.7244112,6.165427803,-99999.0,'11133222,11111222,99999999' 
TABS,ioos:station:wmo:42048:1,2002-07-01T18:30:00Z,27.9396,-96.8429,2.0,176.3202489,3.116424233,-99999.0,'11133222,11111222,99999999' 
TABS,ioos:station:wmo:42048:1,2002-07-01T19:00:00Z,27.9396,-96.8429,2.0,171.0930662,2.712710821,-99999.0,'11133222,11111222,99999999' 
TABS,ioos:station:wmo:42048:1,2002-07-01T19:30:00Z,27.9396,-96.8429,2.0,184.0768605,4.782102048,-99999.0,'11133222,11111222,99999999' 
TABS,ioos:station:wmo:42048:1,2002-07-01T20:00:00Z,27.9396,-96.8429,2.0,184.3913253,6.138020854,-99999.0,'11133222,11111222,99999999' 
TABS,ioos:station:wmo:42048:1,2002-07-01T20:30:00Z,27.9396,-96.8429,2.0,201.8273463,4.06115747,-99999.0,'11133222,11111222,99999999' 
TABS,ioos:station:wmo:42048:1,2002-07-01T21:00:00Z,27.9396,-96.8429,2.0,196.7253174,6.254606303,-99999.0,'11133222,11111222,99999999' 
TABS,ioos:station:wmo:42048:1,2002-07-01T21:30:00Z,27.9396,-96.8429,2.0,144.9198845,4.802343178,-99999.0,'11133222,11111222,99999999' 
TABS,ioos:station:wmo:42048:1,2002-07-01T22:00:00Z,27.9396,-96.8429,2.0,182.7950064,5.536587397,-99999.0,'11133222,11111222,99999999' 
TABS,ioos:station:wmo:42048:1,2002-07-01T22:30:00Z,27.9396,-96.8429,2.0,184.3680568,4.332585833,-99999.0,'11133222,11111222,99999999' 
TABS,ioos:station:wmo:42048:1,2002-07-01T23:00:00Z,27.9396,-96.8429,2.0,190.8487372,4.14406805,-99999.0,'11133222,11111222,99999999' 
TABS,ioos:station:wmo:42048:1,2002-07-02T00:00:00Z,27.9396,-96.8429,2.0,186.9737845,3.294373992,-99999.0,'11133222,11111222,99999999' 
TABS,ioos:station:wmo:42048:1,2002-07-02T00:30:00Z,27.9396,-96.8429,2.0,186.5440584,4.650301066,-99999.0,'11133222,11111222,99999999' 
TABS,ioos:station:wmo:42048:1,2002-07-02T01:00:00Z,27.9396,-96.8429,2.0,227.0092334,4.032988966,-99999.0,'11133222,11111222,99999999' 
TABS,ioos:station:wmo:42048:1,2002-07-02T01:30:00Z,27.9396,-96.8429,2.0,188.8261399,3.258588652,-99999.0,'11133222,11111222,99999999' 
TABS,ioos:station:wmo:42048:1,2002-07-02T02:00:00Z,27.9396,-96.8429,2.0,183.2318756,4.256771077,-99999.0,'11133222,11111222,99999999' 
TABS,ioos:station:wmo:42048:1,2002-07-02T02:30:00Z,27.9396,-96.8429,2.0,148.4266003,5.481404929,-99999.0,'11133222,11111222,99999999' 
TABS,ioos:station:wmo:42048:1,2002-07-02T03:00:00Z,27.9396,-96.8429,2.0,162.6993028,4.472337197,-99999.0,'11133222,11111222,99999999' 
TABS,ioos:station:wmo:42048:1,2002-07-02T03:30:00Z,27.9396,-96.8429,2.0,143.9725004,1.088117641,-99999.0,'11133222,11111222,99999999' 
TABS,ioos:station:wmo:42048:1,2002-07-02T04:00:00Z,27.9396,-96.8429,2.0,136.1046326,2.56727482,-99999.0,'11133222,11111222,99999999' 
TABS,ioos:station:wmo:42048:1,2002-07-02T04:30:00Z,27.9396,-96.8429,2.0,120.8275902,2.888044321,-99999.0,'11133222,11111222,99999999' 
TABS,ioos:station:wmo:42048:1,2002-07-02T05:00:00Z,27.9396,-96.8429,2.0,212.5854207,1.151216748,-99999.0,'11133222,11111222,99999999' 
TABS,ioos:station:wmo:42048:1,2002-07-02T06:00:00Z,27.9396,-96.8429,2.0,153.5332465,2.602786968,-99999.0,'11133222,11111222,99999999' 
TABS,ioos:station:wmo:42048:1,2002-07-02T06:30:00Z,27.9396,-96.8429,2.0,127.1167739,1.856017241,-99999.0,'11133222,11111222,99999999' 
TABS,ioos:station:wmo:42048:1,2002-07-02T07:00:00Z,27.9396,-96.8429,2.0,311.082076,1.034794666,-99999.0,'11133222,11111222,99999999' 
TABS,ioos:station:wmo:42048:1,2002-07-02T07:30:00Z,27.9396,-96.8429,2.0,159.3951337,2.75632001,-99999.0,'11133222,11111222,99999999' 
TABS,ioos:station:wmo:42048:1,2002-07-02T08:00:00Z,27.9396,-96.8429,2.0,317.8988857,2.237319825,-99999.0,'11133222,11111222,99999999' 
TABS,ioos:station:wmo:42048:1,2002-07-02T08:30:00Z,27.9396,-96.8429,2.0,126.9508519,4.242004243,-99999.0,'11133222,11111222,99999999' 
TABS,ioos:station:wmo:42048:1,2002-07-02T09:00:00Z,27.9396,-96.8429,2.0,103.4451486,3.52665564,-99999.0,'11133222,11111222,99999999' 
TABS,ioos:station:wmo:42048:1,2002-07-02T09:30:00Z,27.9396,-96.8429,2.0,199.9253236,0.850940656,-99999.0,'11133222,11111222,99999999' 
TABS,ioos:station:wmo:42048:1,2002-07-02T10:00:00Z,27.9396,-96.8429,2.0,105.080756,1.72956642,-99999.0,'11133222,11111222,99999999' 
TABS,ioos:station:wmo:42048:1,2002-07-02T10:30:00Z,27.9396,-96.8429,2.0,210.9634737,1.574357012,-99999.0,'11133222,11111222,99999999' 
TABS,ioos:station:wmo:42048:1,2002-07-02T11:00:00Z,27.9396,-96.8429,2.0,208.5228414,0.523545605,-99999.0,'11133222,11111222,99999999' 
TABS,ioos:station:wmo:42048:1,2002-07-02T12:00:00Z,27.9396,-96.8429,2.0,38.17774862,3.154821707,-99999.0,'11133222,11111222,99999999' 
TABS,ioos:station:wmo:42048:1,2002-07-02T12:30:00Z,27.9396,-96.8429,2.0,65.43288613,1.92418814,-99999.0,'11133222,11111222,99999999' 
TABS,ioos:station:wmo:42048:1,2002-07-02T13:00:00Z,27.9396,-96.8429,2.0,40.19854311,3.547985344,-99999.0,'11133222,11111222,99999999' 
TABS,ioos:station:wmo:42048:1,2002-07-02T13:30:00Z,27.9396,-96.8429,2.0,68.83878967,3.324154028,-99999.0,'11133222,11111222,99999999' 
TABS,ioos:station:wmo:42048:1,2002-07-02T14:00:00Z,27.9396,-96.8429,2.0,329.8732211,2.231434516,-99999.0,'11133222,11111222,99999999' 
TABS,ioos:station:wmo:42048:1,2002-07-02T15:00:00Z,27.9396,-96.8429,2.0,323.461584,1.730028901,-99999.0,'11133222,11111222,99999999' 
TABS,ioos:station:wmo:42048:1,2002-07-02T15:30:00Z,27.9396,-96.8429,2.0,328.2988549,0.799249648,-99999.0,'11133222,11111222,99999999' 
TABS,ioos:station:wmo:42048:1,2002-07-02T16:00:00Z,27.9396,-96.8429,2.0,5.594994835,4.923454072,-99999.0,'11133222,11111222,99999999' 
TABS,ioos:station:wmo:42048:1,2002-07-02T16:30:00Z,27.9396,-96.8429,2.0,38.11986628,9.444246926,-99999.0,'11133222,11111222,99999999' 
TABS,ioos:station:wmo:42048:1,2002-07-02T17:00:00Z,27.9396,-96.8429,2.0,44.49506365,7.219840718,-99999.0,'11133222,11111222,99999999' 
TABS,ioos:station:wmo:42048:1,2002-07-02T17:30:00Z,27.9396,-96.8429,2.0,44.69305755,6.597401003,-99999.0,'11133222,11111222,99999999' 
TABS,ioos:station:wmo:42048:1,2002-07-02T18:00:00Z,27.9396,-96.8429,2.0,32.93152291,6.493335044,-99999.0,'11133222,11111222,99999999' 
TABS,ioos:station:wmo:42048:1,2002-07-02T18:30:00Z,27.9396,-96.8429,2.0,39.68557199,8.550321631,-99999.0,'11133222,11111222,99999999' 
TABS,ioos:station:wmo:42048:1,2002-07-02T19:00:00Z,27.9396,-96.8429,2.0,24.8490826,10.3039507,-99999.0,'11111222,11111222,99999999' 
TABS,ioos:station:wmo:42048:1,2002-07-02T19:30:00Z,27.9396,-96.8429,2.0,23.25979332,11.09146068,-99999.0,'11111222,11111222,99999999' 
TABS,ioos:station:wmo:42048:1,2002-07-02T20:00:00Z,27.9396,-96.8429,2.0,37.69436278,10.28706469,-99999.0,'11111222,11111222,99999999' 
TABS,ioos:station:wmo:42048:1,2002-07-02T20:30:00Z,27.9396,-96.8429,2.0,18.88880524,11.18216437,-99999.0,'11111222,11111222,99999999' 
TABS,ioos:station:wmo:42048:1,2002-07-02T21:00:00Z,27.9396,-96.8429,2.0,48.08291853,9.729727643,-99999.0,'11133222,11111222,99999999' 
TABS,ioos:station:wmo:42048:1,2002-07-02T21:30:00Z,27.9396,-96.8429,2.0,29.01826652,7.627509423,-99999.0,'11133222,11111222,99999999' 
TABS,ioos:station:wmo:42048:1,2002-07-02T22:00:00Z,27.9396,-96.8429,2.0,40.93120877,10.36402431,-99999.0,'11111222,11111222,99999999' 
TABS,ioos:station:wmo:42048:1,2002-07-02T22:30:00Z,27.9396,-96.8429,2.0,36.68984749,9.54004717,-99999.0,'11133222,11111222,99999999' 
TABS,ioos:station:wmo:42048:1,2002-07-02T23:00:00Z,27.9396,-96.8429,2.0,57.23683513,7.372930218,-99999.0,'11133222,11111222,99999999' 
TABS,ioos:station:wmo:42048:1,2002-07-02T23:30:00Z,27.9396,-96.8429,2.0,50.75835193,6.765796332,-99999.0,'11133222,11111222,99999999' 
TABS,ioos:station:wmo:42048:1,2002-07-03T00:00:00Z,27.9396,-96.8429,2.0,9.489284204,3.518138712,-99999.0,'11133222,11111222,99999999' 
TABS,ioos:station:wmo:42048:1,2002-07-03T00:30:00Z,27.9396,-96.8429,2.0,29.9716353,3.763243282,-99999.0,'11133222,11111222,99999999' 
TABS,ioos:station:wmo:42048:1,2002-07-03T01:00:00Z,27.9396,-96.8429,2.0,328.0984359,2.933018923,-99999.0,'11133222,11111222,99999999' 
TABS,ioos:station:wmo:42048:1,2002-07-03T01:30:00Z,27.9396,-96.8429,2.0,26.6618194,2.651980392,-99999.0,'11133222,11111222,99999999' 
TABS,ioos:station:wmo:42048:1,2002-07-03T02:00:00Z,27.9396,-96.8429,2.0,277.1499899,2.892490277,-99999.0,'11133222,11111222,99999999' 
TABS,ioos:station:wmo:42048:1,2002-07-03T02:30:00Z,27.9396,-96.8429,2.0,212.0923058,0.696419414,-99999.0,'11133222,11111222,99999999' 
TABS,ioos:station:wmo:42048:1,2002-07-03T03:00:00Z,27.9396,-96.8429,2.0,308.9278735,1.002646498,-99999.0,'11133222,11111222,99999999' 
TABS,ioos:station:wmo:42048:1,2002-07-03T03:30:00Z,27.9396,-96.8429,2.0,121.6074283,0.610573501,-99999.0,'11133222,11111222,99999999' 
TABS,ioos:station:wmo:42048:1,2002-07-03T04:00:00Z,27.9396,-96.8429,2.0,235.6898976,2.820815485,-99999.0,'11133222,11111222,99999999' 
TABS,ioos:station:wmo:42048:1,2002-07-03T04:30:00Z,27.9396,-96.8429,2.0,349.7388597,2.357710754,-99999.0,'11133222,11111222,99999999' 
TABS,ioos:station:wmo:42048:1,2002-07-03T05:00:00Z,27.9396,-96.8429,2.0,334.7822718,3.614484749,-99999.0,'11133222,11111222,99999999' 
TABS,ioos:station:wmo:42048:1,2002-07-03T05:30:00Z,27.9396,-96.8429,2.0,261.5284543,1.425552524,-99999.0,'11133222,11111222,99999999' 
TABS,ioos:station:wmo:42048:1,2002-07-03T06:00:00Z,27.9396,-96.8429,2.0,314.292998,3.436800838,-99999.0,'11133222,11111222,99999999' 
TABS,ioos:station:wmo:42048:1,2002-07-03T06:30:00Z,27.9396,-96.8429,2.0,343.1002653,5.194323825,-99999.0,'11133222,11111222,99999999' 
TABS,ioos:station:wmo:42048:1,2002-07-03T07:00:00Z,27.9396,-96.8429,2.0,332.4594775,1.838314445,-99999.0,'11133222,11111222,99999999' 
TABS,ioos:station:wmo:42048:1,2002-07-03T07:30:00Z,27.9396,-96.8429,2.0,337.5920646,3.331561196,-99999.0,'11133222,11111222,99999999' 
TABS,ioos:station:wmo:42048:1,2002-07-03T08:00:00Z,27.9396,-96.8429,2.0,297.4513545,0.867698104,-99999.0,'11133222,11111222,99999999' 
TABS,ioos:station:wmo:42048:1,2002-07-03T08:30:00Z,27.9396,-96.8429,2.0,16.73682099,5.8686029,-99999.0,'11133222,11111222,99999999' 
TABS,ioos:station:wmo:42048:1,2002-07-03T09:00:00Z,27.9396,-96.8429,2.0,9.625436107,3.468832657,-99999.0,'11133222,11111222,99999999' 
TABS,ioos:station:wmo:42048:1,2002-07-03T09:30:00Z,27.9396,-96.8429,2.0,345.0251958,5.921089427,-99999.0,'11133222,11111222,99999999' 
TABS,ioos:station:wmo:42048:1,2002-07-03T10:00:00Z,27.9396,-96.8429,2.0,358.6733582,9.932663288,-99999.0,'11133222,11111222,99999999' 
TABS,ioos:station:wmo:42048:1,2002-07-03T10:30:00Z,27.9396,-96.8429,2.0,22.36591896,8.67239298,-99999.0,'11133222,11111222,99999999' 
TABS,ioos:station:wmo:42048:1,2002-07-03T11:00:00Z,27.9396,-96.8429,2.0,356.7121539,5.579184528,-99999.0,'11133222,11111222,99999999' 
TABS,ioos:station:wmo:42048:1,2002-07-03T11:30:00Z,27.9396,-96.8429,2.0,10.29991395,10.01132359,-99999.0,'11111222,11111222,99999999' 
TABS,ioos:station:wmo:42048:1,2002-07-03T12:00:00Z,27.9396,-96.8429,2.0,8.825646311,7.691059745,-99999.0,'11133222,11111222,99999999' 
TABS,ioos:station:wmo:42048:1,2002-07-03T12:30:00Z,27.9396,-96.8429,2.0,15.37011427,6.564792457,-99999.0,'11133222,11111222,99999999' 
TABS,ioos:station:wmo:42048:1,2002-07-03T13:00:00Z,27.9396,-96.8429,2.0,5.508118129,8.438963206,-99999.0,'11133222,11111222,99999999' 
TABS,ioos:station:wmo:42048:1,2002-07-03T13:30:00Z,27.9396,-96.8429,2.0,6.109138403,9.302827527,-99999.0,'11133222,11111222,99999999' 
TABS,ioos:station:wmo:42048:1,2002-07-03T14:00:00Z,27.9396,-96.8429,2.0,7.85545788,10.02406105,-99999.0,'11111222,11111222,99999999' 
TABS,ioos:station:wmo:42048:1,2002-07-03T14:30:00Z,27.9396,-96.8429,2.0,15.69567688,7.873582412,-99999.0,'11133222,11111222,99999999' 
TABS,ioos:station:wmo:42048:1,2002-07-03T15:00:00Z,27.9396,-96.8429,2.0,17.24353857,9.884255157,-99999.0,'11133222,11111222,99999999' 
TABS,ioos:station:wmo:42048:1,2002-07-03T15:30:00Z,27.9396,-96.8429,2.0,21.355589,7.634166621,-99999.0,'11133222,11111222,99999999' 
TABS,ioos:station:wmo:42048:1,2002-07-03T16:00:00Z,27.9396,-96.8429,2.0,31.03626799,12.21928394,-99999.0,'11111222,11111222,99999999' 
TABS,ioos:station:wmo:42048:1,2002-07-03T16:30:00Z,27.9396,-96.8429,2.0,21.04164261,10.36085421,-99999.0,'11111222,11111222,99999999' 
TABS,ioos:station:wmo:42048:1,2002-07-03T17:00:00Z,27.9396,-96.8429,2.0,36.28994561,10.27252647,-99999.0,'11111222,11111222,99999999' 
TABS,ioos:station:wmo:42048:1,2002-07-03T17:30:00Z,27.9396,-96.8429,2.0,30.51515252,12.91938466,-99999.0,'11111222,11111222,99999999' 
TABS,ioos:station:wmo:42048:1,2002-07-03T18:00:00Z,27.9396,-96.8429,2.0,34.52413806,13.33917914,-99999.0,'11111222,11111222,99999999' 
TABS,ioos:station:wmo:42048:1,2002-07-03T18:30:00Z,27.9396,-96.8429,2.0,40.83312338,10.99629483,-99999.0,'11111222,11111222,99999999' 
TABS,ioos:station:wmo:42048:1,2002-07-03T19:00:00Z,27.9396,-96.8429,2.0,41.00131258,14.29715007,-99999.0,'11111222,11111222,99999999' 
TABS,ioos:station:wmo:42048:1,2002-07-03T19:30:00Z,27.9396,-96.8429,2.0,57.8911142,14.07255485,-99999.0,'11111222,11111222,99999999' 
TABS,ioos:station:wmo:42048:1,2002-07-03T20:00:00Z,27.9396,-96.8429,2.0,61.48619455,11.83564531,-99999.0,'11111222,11111222,99999999' 
TABS,ioos:station:wmo:42048:1,2002-07-03T20:30:00Z,27.9396,-96.8429,2.0,67.22302944,11.77850585,-99999.0,'11111222,11111222,99999999' 
TABS,ioos:station:wmo:42048:1,2002-07-03T21:00:00Z,27.9396,-96.8429,2.0,84.78074768,10.44329929,-99999.0,'11111222,11111222,99999999' 
TABS,ioos:station:wmo:42048:1,2002-07-03T21:30:00Z,27.9396,-96.8429,2.0,63.89466412,9.47676105,-99999.0,'11133222,11111222,99999999' 
TABS,ioos:station:wmo:42048:1,2002-07-03T22:00:00Z,27.9396,-96.8429,2.0,60.60401589,8.964156402,-99999.0,'11133222,11111222,99999999' 
TABS,ioos:station:wmo:42048:1,2002-07-03T22:30:00Z,27.9396,-96.8429,2.0,57.76221058,8.098450469,-99999.0,'11133222,11111222,99999999' 
TABS,ioos:station:wmo:42048:1,2002-07-03T23:00:00Z,27.9396,-96.8429,2.0,43.86568625,11.4290857,-99999.0,'11111222,11111222,99999999' 
TABS,ioos:station:wmo:42048:1,2002-07-03T23:30:00Z,27.9396,-96.8429,2.0,52.47555543,13.47887978,-99999.0,'11111222,11111222,99999999' 
TABS,ioos:station:wmo:42048:1,2002-07-04T00:00:00Z,27.9396,-96.8429,2.0,46.7617601,8.510517023,-99999.0,'11133222,11111222,99999999' 
TABS,ioos:station:wmo:42048:1,2002-07-04T00:30:00Z,27.9396,-96.8429,2.0,46.85314153,9.621683844,-99999.0,'11133222,11111222,99999999' 
TABS,ioos:station:wmo:42048:1,2002-07-04T01:00:00Z,27.9396,-96.8429,2.0,38.90579317,10.19043179,-99999.0,'11111222,11111222,99999999' 
TABS,ioos:station:wmo:42048:1,2002-07-04T01:30:00Z,27.9396,-96.8429,2.0,30.30405288,5.212187641,-99999.0,'11133222,11111222,99999999' 
TABS,ioos:station:wmo:42048:1,2002-07-04T02:00:00Z,27.9396,-96.8429,2.0,46.8061263,6.282228904,-99999.0,'11133222,11111222,99999999' 
TABS,ioos:station:wmo:42048:1,2002-07-04T02:30:00Z,27.9396,-96.8429,2.0,29.22558362,6.840796737,-99999.0,'11133222,11111222,99999999' 
TABS,ioos:station:wmo:42048:1,2002-07-04T03:00:00Z,27.9396,-96.8429,2.0,35.76595982,9.341734314,-99999.0,'11133222,11111222,99999999' 
TABS,ioos:station:wmo:42048:1,2002-07-04T03:30:00Z,27.9396,-96.8429,2.0,15.32398412,6.584079283,-99999.0,'11133222,11111222,99999999' 
TABS,ioos:station:wmo:42048:1,2002-07-04T04:00:00Z,27.9396,-96.8429,2.0,15.92557408,7.872134399,-99999.0,'11133222,11111222,99999999' 
TABS,ioos:station:wmo:42048:1,2002-07-04T04:30:00Z,27.9396,-96.8429,2.0,23.57807089,8.925093837,-99999.0,'11133222,11111222,99999999' 
TABS,ioos:station:wmo:42048:1,2002-07-04T05:00:00Z,27.9396,-96.8429,2.0,1.494540556,10.35352114,-99999.0,'11111222,11111222,99999999' 
TABS,ioos:station:wmo:42048:1,2002-07-04T05:30:00Z,27.9396,-96.8429,2.0,2.422553763,8.517611167,-99999.0,'11133222,11111222,99999999' 
TABS,ioos:station:wmo:42048:1,2002-07-04T06:00:00Z,27.9396,-96.8429,2.0,24.43094574,10.80770558,-99999.0,'11111222,11111222,99999999' 
TABS,ioos:station:wmo:42048:1,2002-07-04T06:30:00Z,27.9396,-96.8429,2.0,15.85471982,12.99432568,-99999.0,'11111222,11111222,99999999' 
TABS,ioos:station:wmo:42048:1,2002-07-04T07:00:00Z,27.9396,-96.8429,2.0,27.0976716,12.03056524,-99999.0,'11111222,11111222,99999999' 
TABS,ioos:station:wmo:42048:1,2002-07-04T07:30:00Z,27.9396,-96.8429,2.0,24.51545068,12.62844804,-99999.0,'11111222,11111222,99999999' 
TABS,ioos:station:wmo:42048:1,2002-07-04T08:00:00Z,27.9396,-96.8429,2.0,34.97648251,11.98454421,-99999.0,'11111222,11111222,99999999' 
TABS,ioos:station:wmo:42048:1,2002-07-04T08:30:00Z,27.9396,-96.8429,2.0,25.13724396,12.3827178,-99999.0,'11111222,11111222,99999999' 
TABS,ioos:station:wmo:42048:1,2002-07-04T09:00:00Z,27.9396,-96.8429,2.0,27.59938241,11.89334688,-99999.0,'11111222,11111222,99999999' 
TABS,ioos:station:wmo:42048:1,2002-07-04T09:30:00Z,27.9396,-96.8429,2.0,38.93745763,12.25197535,-99999.0,'11111222,11111222,99999999' 
TABS,ioos:station:wmo:42048:1,2002-07-04T10:00:00Z,27.9396,-96.8429,2.0,54.27800118,12.28046416,-99999.0,'11111222,11111222,99999999' 
TABS,ioos:station:wmo:42048:1,2002-07-04T10:30:00Z,27.9396,-96.8429,2.0,43.69528675,9.626219403,-99999.0,'11133222,11111222,99999999' 
TABS,ioos:station:wmo:42048:1,2002-07-04T11:00:00Z,27.9396,-96.8429,2.0,16.17977516,11.08921097,-99999.0,'11111222,11111222,99999999' 
TABS,ioos:station:wmo:42048:1,2002-07-04T11:30:00Z,27.9396,-96.8429,2.0,45.90948355,11.1383347,-99999.0,'11111222,11111222,99999999' 
TABS,ioos:station:wmo:42048:1,2002-07-04T12:00:00Z,27.9396,-96.8429,2.0,42.3103412,7.383258088,-99999.0,'11133222,11111222,99999999' 
TABS,ioos:station:wmo:42048:1,2002-07-04T12:30:00Z,27.9396,-96.8429,2.0,31.44637283,11.40506028,-99999.0,'11111222,11111222,99999999' 
TABS,ioos:station:wmo:42048:1,2002-07-04T13:00:00Z,27.9396,-96.8429,2.0,32.93489843,8.626337577,-99999.0,'11133222,11111222,99999999' 
TABS,ioos:station:wmo:42048:1,2002-07-04T13:30:00Z,27.9396,-96.8429,2.0,48.62246944,11.52765804,-99999.0,'11111222,11111222,99999999' 
TABS,ioos:station:wmo:42048:1,2002-07-04T14:00:00Z,27.9396,-96.8429,2.0,48.01985893,12.2145528,-99999.0,'11111222,11111222,99999999' 
TABS,ioos:station:wmo:42048:1,2002-07-04T14:30:00Z,27.9396,-96.8429,2.0,53.72885046,14.16477321,-99999.0,'11111222,11111222,99999999' 
TABS,ioos:station:wmo:42048:1,2002-07-04T15:00:00Z,27.9396,-96.8429,2.0,67.4230258,6.173078648,-99999.0,'11133222,11111222,99999999' 
TABS,ioos:station:wmo:42048:1,2002-07-04T15:30:00Z,27.9396,-96.8429,2.0,42.64681387,6.199483849,-99999.0,'11133222,11111222,99999999' 
TABS,ioos:station:wmo:42048:1,2002-07-04T16:00:00Z,27.9396,-96.8429,2.0,49.71656518,12.12551442,-99999.0,'11111222,11111222,99999999' 
TABS,ioos:station:wmo:42048:1,2002-07-04T16:30:00Z,27.9396,-96.8429,2.0,43.471225,7.95071066,-99999.0,'11133222,11111222,99999999' 
TABS,ioos:station:wmo:42048:1,2002-07-04T17:00:00Z,27.9396,-96.8429,2.0,45.97919647,15.31109728,-99999.0,'11111222,11111222,99999999' 
TABS,ioos:station:wmo:42048:1,2002-07-04T17:30:00Z,27.9396,-96.8429,2.0,41.12544109,14.23123326,-99999.0,'11111222,11111222,99999999' 
TABS,ioos:station:wmo:42048:1,2002-07-04T18:00:00Z,27.9396,-96.8429,2.0,44.48557813,13.38607112,-99999.0,'11111222,11111222,99999999' 
TABS,ioos:station:wmo:42048:1,2002-07-04T18:30:00Z,27.9396,-96.8429,2.0,44.47806368,12.4173105,-99999.0,'11111222,11111222,99999999' 
TABS,ioos:station:wmo:42048:1,2002-07-04T19:00:00Z,27.9396,-96.8429,2.0,40.52004603,12.22078966,-99999.0,'11111222,11111222,99999999' 
TABS,ioos:station:wmo:42048:1,2002-07-04T19:30:00Z,27.9396,-96.8429,2.0,40.28820629,11.70682707,-99999.0,'11111222,11111222,99999999' 